Location: Bielawa
(50.6769°N, 16.6032°E)
Time: 10:45:31
(UTC+02:00)

ISS - Visible Passes

Search period start: 22 September 2018 00:00
Search period end: 02 October 2018 00:00
Orbit: 403 x 408 km, 51.6° (Epoch: 22 September)

Date Brightness Start Highest point End Pass type
(mag) Time Alt. Az. Time Alt. Az. Time Alt. Az.
22 Sep -1.9 20:27:32 10° SSW 20:28:50 17° S 20:28:50 17° S visible
23 Sep -1.7 19:36:45 10° SSE 19:38:24 13° SE 19:39:34 11° ESE visible
23 Sep -1.7 21:11:07 10° SW 21:12:17 20° SW 21:12:17 20° SW visible
24 Sep -3.2 20:19:28 10° SW 20:22:32 36° SSE 20:22:49 35° SE visible
25 Sep -2.5 19:28:01 10° SSW 19:30:44 24° SE 19:33:12 12° E visible
25 Sep -2.7 21:03:39 10° WSW 21:05:53 40° WSW 21:05:53 40° WSW visible
26 Sep -3.8 20:11:47 10° WSW 20:15:02 61° SSE 20:16:08 36° E visible
26 Sep -0.8 21:48:15 10° W 21:48:49 14° W 21:48:49 14° W visible
27 Sep -3.2 19:20:01 10° SW 19:23:10 42° SSE 19:26:17 10° E visible
27 Sep -3.2 20:56:16 10° W 20:58:57 55° W 20:58:57 55° W visible
28 Sep -3.9 20:04:17 10° WSW 20:07:35 89° S 20:09:02 31° ENE visible
28 Sep -0.9 21:40:53 10° W 21:41:42 16° W 21:41:42 16° W visible
29 Sep -3.7 19:12:21 10° WSW 19:15:38 69° SSE 19:18:55 10° ENE visible
29 Sep -3.3 20:48:53 10° W 20:51:43 59° WNW 20:51:43 59° WNW visible
30 Sep -3.8 19:56:50 10° W 20:00:09 75° N 20:01:42 29° ENE visible
30 Sep -1.0 21:33:26 10° WNW 21:34:21 18° WNW 21:34:21 18° WNW visible
01 Oct -3.8 19:04:49 10° W 19:08:07 85° NNW 19:11:26 10° ENE visible
01 Oct -3.4 20:41:25 10° W 20:44:18 64° WNW 20:44:18 64° WNW visible
